Hourly Data Report for October 06, 2015

All times are specified in Local Standard Time (LST). Add 1 hour to adjust for Daylight Saving Time where and when it is observed.

KUGAARUK CLIMATE
NUNAVUT

68°32'15.060" N
89°47'47.020" W
15.80 m
2303094
71407
NBB

Download Data

Hourly Data (October 2015)
Hourly Data Report for October 6, 2015
Temp Definition
°C
Dew Point Temp Definition
°C
Rel Hum Definition
%
Wind Dir Definition
10's deg

Wind Spd Definition
km/h
Visibility Definition
km
Stn Press Definition
kPa
Hmdx Definition


Wind Chill Definition


Weather Definition


TIME
00:00 -0.8 -1.9 93 22 33   100.41   -8 LegendNANA
01:00 -0.7 -2.0 91 21 33   100.39   -8 LegendNANA
02:00 -0.6 -2.1 89 22 32   100.35   -7 LegendNANA
03:00 -0.6 -2.2 89 21 30   100.34   -7 LegendNANA
04:00 -0.5 -2.2 89 21 29   100.32   -7 LegendNANA
05:00 -0.2 -2.1 87 22 30   100.33   -7 LegendNANA
06:00 -0.3 -2.2 87 28 19   100.36   -5 LegendNANA
07:00 -0.8 -3.3 83 28 16   100.37   -6 LegendNANA
08:00 -1.2 -4.1 81 28 13   100.39   -5 LegendNANA
09:00 -1.3 -4.0 82 26 11   100.40   -5 LegendNANA
10:00 -1.1 -3.8 82 26 12   100.39   -5 LegendNANA
11:00 -0.8 -3.3 83 27 15   100.41   -5 LegendNANA
12:00 -1.4 -5.4 74 28 21   100.43   -7 LegendNANA
13:00 -1.1 -5.6 72 25 21   100.41   -7 LegendNANA
14:00 -1.4 -5.4 74 23 23   100.42   -7 LegendNANA
15:00 -2.2 -5.7 77 28 29   100.46   -9 LegendNANA
16:00 -4.1 -8.6 71 29 27   100.55   -11 LegendNANA
17:00 -5.3 -10.1 69 30 21   100.58   -12 LegendNANA
18:00 -5.8 -10.0 73 29 14   100.58   -11 LegendNANA
19:00 -5.6 -9.9 72 27 21   100.55   -12 LegendNANA
20:00 -5.9 -9.5 76 25 26   100.54   -14 LegendNANA
21:00 -6.5 -8.9 83 24 24   100.51   -14 LegendNANA
22:00 -6.2 -8.7 83 24 26   100.48   -14 LegendNANA
23:00 -5.9 -8.0 85 25 29   100.47   -14 LegendNANA

Notes on Data Quality.

Legend

  • E = Estimated
  • M = Missing
  • NA = Not Available
  • ‡ = Partner data that is not subject to review by the National Climate Archives
Date modified: